IRIDIUM 139

Last updated on Sat Aug 15 2026 00:03:08 GMT+0000 (Coordinated Universal Time)

1 42963U 17061J 26226.44683697 .00000114 00000+0 33590-4 0 9993 2 42963 86.4007 0.9636 0002235 92.3548 267.7904 14.34218078463194
UTC large
Height (km)
Speed (km/s)
/
Latitude / Longitude
Inclination (degrees)
Orbital Period (minutes)
Azimuth
Elevation
Range (km)
Doppler Factor

Next 0 passes for location: London (51.5072 / 0.1276)

No passes found over London.
IRIDIUM 139